sat.trackr.live / text

‹ back to catalog

KUIPER-00152

NORAD 65772 · 2025-217L

PAYLOAD ACTIVE UNKNOWN

§ Identity

Operator
Country
US
Launch date
2025-09-25
Launch site
AFETR
Launch vehicle
Mass (kg)
RCS (m²)

External: N2YO · Heavens-Above · Gunter

§ Orbital elements

Epoch: 2026-05-25T03:22:23.246112Z

Period
97.30 min
Inclination
51.9004°
Eccentricity
0.0001023
Mean motion
14.79932623 rev/d
Perigee alt
628.8 km
Apogee alt
630.3 km
Semi-major
7,007.7 km
B*
1.9186e-4
RAAN
52.5323°
Arg perigee
85.7010°
Mean anomaly
274.4069°
Rev number
3,637

§ Raw data

KUIPER-001521 65772U 25217L   26145.14054683  .00001242  00000+0  19186-3 0  99992 65772  51.9004  52.5323 0001023  85.7010 274.4069 14.79932623 36372

JSON: /api/v1/satellites/65772 · /tle

For live sub-satellite position, see the globe view (requires WebGL).

§ Visibility from observer

Set your observer location to see the next 7 days of passes ≥ 10°. The values pass through the URL so the page stays shareable.

No JS? Fill the form by hand. The geolocation button needs JavaScript.